Location: Amanico Ergina Village
(37.7824°N, 122.4366°W)
Time: 06:51:01
(UTC+00:00)

COSMO-SKYMED 1 - Pass Details

Date: 29 October 2020
Orbit: 621 x 623 km, 97.9° (Epoch: 02 December)

Event Time Altitude Azimuth Distance (km) Brightness Sun altitude
Rises 13:21:17 0° 164° (SSE) 2,889 6.3 -14.6°
Reaches altitude 10° 13:23:27 10° 164° (SSE) 1,987 5.4 -14.2°
Maximum altitude 13:27:46 83° 78° (ENE) 633 2.6 -13.4°
Drops below altitude 10° 13:32:08 10° 349° (N) 2,001 5.0 -12.5°
Sets 13:34:20 0° 349° (N) 2,911 5.8 -12.1°
